Regional Weather Roundup
Issued by NWS

Home | Current Version | Previous Version | Text Only | Print | Product List | Glossary Off
Versions: 1 2 3 4 5 6 7 8 9 10 11 12 13 14 15 16 17 18 19 20 21 22 23 24 25 26 27 28 29 30 31 32 33 34 35 36 37 38 39 40 41 42 43 44 45 46 47 48 49 50

830
ASUS43 KMKX 051921
RWRWI

WISCONSIN REGIONAL WEATHER ROUNDUP
NATIONAL WEATHER SERVICE MILWAUKEE/SULLIVAN WI
100 PM CST MON DEC 05 2016

NOTE: "FAIR" INDICATES FEW OR NO CLOUDS BELOW 12,000 FEET WITH NO
SIGNIFICANT WEATHER AND/OR OBSTRUCTIONS TO VISIBILITY.

WIZ001-002-006>008-014>016-023>028-052000-
NORTHWEST WISCONSIN

CITY           SKY/WX    TMP DP  RH WIND       PRES   REMARKS
SUPERIOR ARPT  SUNNY     37  29  74 E3        29.78F
ASHLAND        SUNNY     41  29  62 MISG      29.81F
HAYWARD        SUNNY     33  27  78 E13       29.76F WCI  24
SIREN          CLOUDY    36  29  74 SE10      29.73F WCI  29
CUMBERLAND     FOG       30  30 100 SE12      29.74F VSB 1/2 WCI  21
RICE LAKE      CLOUDY    31  31  99 SE10      29.79F FOG     WCI  23
CHETEK         CLOUDY    31  31 100 SE9       29.77F FOG     WCI  23
LADYSMITH      CLOUDY    32  32  99 SE8       29.81F WCI  25
EAU CLAIRE     CLOUDY    35  32  88 S8        29.78F WCI  29
MENOMONIE      CLOUDY    34  34 100 E7        29.78F FOG     WCI  28
NEW RICHMOND   CLOUDY    34  32  94 SE9       29.73F WCI  26
OSCEOLA        CLOUDY    35  35 100 SE10G17   29.74F WCI  27
$$

WIZ003>005-009-010-017-018-052000-
NORTH CENTRAL WISCONSIN

CITY           SKY/WX    TMP DP  RH WIND       PRES   REMARKS
MANITOWISH WTR SUNNY     35  30  85 SW6       29.80S WCI  29
ARBOR VITAE    SUNNY     37  31  80 S6        29.81S WCI  32
WOODRUFF       SUNNY     37  31  80 S6        29.81S WCI  32
RHINELANDER    SUNNY     36  30  79 SW6       29.83S WCI  31
EAGLE RIVER    SUNNY     36  27  70 SW6       29.81S WCI  31
LAND O LAKES   SUNNY     38  29  69 SW5       29.82S WCI  35
PHILLIPS       MOSUNNY   33  30  88 SE5       29.80F WCI  28
TOMAHAWK       MOSUNNY   34  29  81 S3        29.83F
MEDFORD        CLOUDY    31  29  94 SE8       29.82F WCI  23
MERRILL        CLOUDY    34  31  88 CALM      29.85F
$$

WIZ029-030-035-036-043>047-052000-
CENTRAL WISCONSIN

CITY           SKY/WX    TMP DP  RH WIND       PRES   REMARKS
WAUSAU         CLOUDY    33  30  88 SE7       29.85F WCI  27
MOSINEE        CLOUDY    32  32 100 SE7       29.86F WCI  26
MARSHFIELD     CLOUDY    32  31  96 SE8       29.82F FOG     WCI  25
STEVENS POINT  CLOUDY    31  31 100 S6        29.88F FOG     WCI  25
WAUPACA        CLOUDY    36  32  86 S8        29.92S FOG     WCI  29
WAUTOMA        CLOUDY    35  32  88 S10       29.91F FOG     WCI  27
WISC RAPIDS    CLOUDY    34  33  96 SE8       29.87F FOG     WCI  27
CAMP DOUGLAS   CLOUDY    36  32  87 SE12      29.85F WCI  27
$$

WIZ011>013-019>022-031-037>040-048>050-052000-
NORTHEAST WISCONSIN

CITY           SKY/WX    TMP DP  RH WIND       PRES   REMARKS
ANTIGO         SUNNY     34  29  83 S3        29.85F
SHAWANO        CLOUDY    37  31  81 S3        29.91S
OCONTO         CLOUDY    35  30  83 S8        29.92F WCI  28
STURGEON BAY   CLOUDY    35  30  82 S10       29.93F WCI  27
GREEN BAY      CLOUDY    36  32  85 S7        29.92F WCI  30
MANITOWOC      SUNNY     36  30  79 S6        29.94F WCI  31
APPLETON       CLOUDY    34  32  93 SW7       29.90F WCI  28
CLINTONVILLE   CLOUDY    34  30  86 S6        29.90F WCI  29
OSHKOSH        CLOUDY    33  31  92 S13       29.93S FOG     WCI  24
$$

WIZ032>034-041-042-053>061-052000-
SOUTHWEST WISCONSIN

CITY           SKY/WX    TMP DP  RH WIND       PRES   REMARKS
LA CROSSE      PTSUNNY   38  33  82 S15       29.84F WCI  29
SPARTA         PTSUNNY   38  34  83 S6        29.85F WCI  34
VIROQUA        CLOUDY    33  33  98 S13       29.84F WCI  24
BOSCOBEL       CLOUDY    36  32  85 VRB3      29.90F FOG
PRAIRIE DU CHI CLOUDY    35  31  88 SE8       29.89F WCI  28
PLATTEVILLE    CLOUDY    33  33 100 SE12      29.91S WCI  24
$$

WIZ056-057-062-063-064-067-068-052000-
SOUTH CENTRAL WISCONSIN

CITY           SKY/WX    TMP DP  RH WIND       PRES   REMARKS
REEDSBURG      CLOUDY    34  33  95 S7        29.89F WCI  28
BARABOO/DELLS  CLOUDY    34  32  94 S9        29.89F WCI  26
LONE ROCK      CLOUDY    35  31  85 S6        29.91F WCI  30
MINERAL POINT  CLOUDY    34  34 100 SE10      29.90S FOG     WCI  26
MADISON        CLOUDY    32  31  96 S16       29.93F FOG     WCI  21
MIDDLETON      CLOUDY    34  34 100 S13       29.93F WCI  25
WATERTOWN      CLOUDY    32  32 100 S10G18    29.95F FOG     WCI  24
MONROE         FOG       32  32 100 S15       29.93F VSB 1/4 WCI  22
JANESVILLE     CLOUDY    34  34 100 S15       29.96F FOG     WCI  24
$$

WIZ051-052-058>065-066-070>072-052000-
SOUTHEAST WISCONSIN

CITY           SKY/WX    TMP DP  RH WIND       PRES   REMARKS
MILWAUKEE      CLOUDY    34  31  88 S12       29.97F FOG     WCI  25
WAUKESHA       CLOUDY    30  30 100 S7        29.98R FOG     WCI  23
MILWAUKEE/TIMM CLOUDY    34  28  80 S10       29.98S FOG     WCI  26
RACINE         CLOUDY    33  31  92 S9        29.99F FOG     WCI  25
BURLINGTON     CLOUDY    32  31  96 S9        29.97F FOG     WCI  24
KENOSHA        CLOUDY    33  30  88 SW13      29.98F FOG     WCI  24
FOND DU LAC    CLOUDY    34  30  85 S14       29.94S WCI  25
SHEBOYGAN      CLOUDY    34  30  85 S13       29.94F WCI  25
WEST BEND      CLOUDY    32  32 100 S8        29.95S FOG     WCI  25
JUNEAU         CLOUDY    32  31  96 S13       29.96S FOG     WCI  22
$$

LSZ147-162-052000-
LAKE SUPERIOR

STATION/POSITION TIME  TEMP    WIND        PRES    WAVE
                       AIR SEA DIR/SP/G            HT/PER
                 (UTC) (F)     (DEG/KT/KT) (MB)    (FT/S)
DEVILS ISLAND    1900   37     310/  2/  4 1010.0F
PORT WING        1830   38     260/  2/  2 1009.8F
SAXON HARBOR     1840   40     350/  5/  6 1009.8S
$$

LMZ867-665-643>646-052000-
LAKE MICHIGAN

STATION/POSITION TIME  TEMP    WIND        PRES    WAVE
                       AIR SEA DIR/SP/G            HT/PER
                 (UTC) (F)     (DEG/KT/KT) (MB)    (FT/S)
CHAMBERS ISLAND  1840   39     200/  6/ 14 1012.9R
NORTHPORT PIER   1840   41     230/  6/ 10 1013.2R
SISTER BAY       1838   41     240/ 13/ 15   N/A
ALGOMA LAKESHORE 1836          240/ 13/ 14   N/A
KEWAUNEE LAKESHO 1854   35     230/  4/ 11 1013.4F
SHEBOYGAN LAKESH 1900   35     190/ 17/ 19 1014.4F
PORT WASHINGTON  1840   36     200/  9/ 14 1015.9R
MILWAUKEE LAKESH 1850   33     190/ 14/ 16   N/A
KENOSHA   LAKESH 1900   33     210/  7/ 13 1015.6
$$

TC  - TEMPERATURE IN CELSIUS
VSB - VISIBILITY IN STATUTE MILES
WCI - WIND CHILL INDEX
HX  - HEAT INDEX





USA.gov is the U.S. government's official web portal to all federal, state and local government web resources and services.